Stations météo

Publicité
London/Heathrow Intl, Grande-Bretagne (3772): Température de l'air & dewpoint: 15.10.2019 05:00:00 - 21.10.2019 05:00:00 (BST)London/Heathrow Intl, Grande-Bretagne (3772): Vitesse du vent & gusts: 15.10.2019 05:00:00 - 21.10.2019 05:00:00 (BST)London/Heathrow Intl, Grande-Bretagne (3772): Direction du vent: 15.10.2019 05:00:00 - 21.10.2019 05:00:00 (BST)London/Heathrow Intl, Grande-Bretagne (3772): reduced air pressure: 15.10.2019 05:00:00 - 21.10.2019 05:00:00 (BST)London/Heathrow Intl, Grande-Bretagne (3772): visibility: 15.10.2019 05:00:00 - 21.10.2019 05:00:00 (BST)London/Heathrow Intl, Grande-Bretagne (3772): Ensoleillement: 15.10.2019 05:00:00 - 21.10.2019 05:00:00 (BST)London/Heathrow Intl, Grande-Bretagne (3772): Quantités de précipitations: 15.10.2019 05:00:00 - 21.10.2019 05:00:00 (BST)
Date & Time tt [°C] td [°C] ff [km/h] ff [knt] fx [km/h] fx [knt] dd ppp [hPa] vv [km] sd [min] rr [mm]
21.10.2019 05:00:00 10,8 9,0 15 8 - - N 1014,9 15 0 0,0
21.10.2019 04:00:00 11,1 8,6 15 8 - - N 1014,6 25 0 0,0
21.10.2019 03:00:00 11,1 8,4 16 9 - - N 1014,3 26 0 0,0
21.10.2019 02:00:00 11,2 8,6 18 10 - - N 1014,2 27 0 0,0
21.10.2019 01:00:00 11,1 9,0 9 5 - - N 1014,4 10 - 0,0
21.10.2019 00:00:00 10,6 8,7 9 5 - - N 1014,5 10 0 0,0
20.10.2019 23:00:00 10,6 8,8 8 4 - - N 1014,5 10 0 0,0
20.10.2019 22:00:00 10,4 8,4 9 5 - - N 1013,6 10 0 0,0
20.10.2019 21:00:00 10,9 7,7 11 6 - - N 1013,4 10 0 0,0
20.10.2019 20:00:00 11,1 7,5 11 6 - - N 1013,5 10 0 0,0
20.10.2019 19:00:00 11,3 7,2 11 6 - - N 1012,6 10 0 0,0
20.10.2019 18:00:00 11,6 7,3 8 4 - - N 1012,3 10 0 0,0
20.10.2019 17:00:00 11,9 7,2 9 5 - - N 1012,0 35 0 0,0
20.10.2019 16:00:00 12,1 7,0 15 8 - - NNE 1011,5 30 0 0,0
20.10.2019 15:00:00 11,9 7,3 15 8 - - NNE 1011,2 30 0 0,0
20.10.2019 14:00:00 11,7 7,3 11 6 - - N 1010,9 10 0 0,0
20.10.2019 13:00:00 11,7 7,4 11 6 - - N 1010,7 10 6 0,0
20.10.2019 12:00:00 11,0 7,2 11 6 - - N 1010,9 28 0 0,0
20.10.2019 11:00:00 10,5 7,6 9 5 - - N 1010,5 23 36 0,0
20.10.2019 10:00:00 9,0 7,8 4 2 - - - 1010,3 10 42 0,0
20.10.2019 09:00:00 6,0 5,7 2 1 - - - 1009,7 10 6 0,0
20.10.2019 08:00:00 5,8 5,6 5 3 - - - 1009,2 10 0 0,0
20.10.2019 07:00:00 4,7 4,5 5 3 - - NW 1008,4 10 0 0,0
20.10.2019 06:00:00 5,0 4,8 4 2 - - WNW 1008,0 9 0 0,0
20.10.2019 05:00:00 5,1 4,9 4 2 - - W 1007,4 9 0 0,0
20.10.2019 04:00:00 5,5 5,2 4 2 - - WNW 1006,7 8 0 0,0
20.10.2019 03:00:00 5,4 4,9 0 0 - - N 1006,8 11 0 0,0
20.10.2019 02:00:00 6,3 5,9 4 2 - - W 1006,4 10 0 0,0
20.10.2019 01:00:00 7,0 6,1 2 1 - - - 1006,2 6 - 0,0
20.10.2019 00:00:00 8,2 6,6 5 3 - - W 1005,9 26 0 0,0
19.10.2019 23:00:00 9,3 6,9 9 5 - - W 1005,4 30 0 0,0
19.10.2019 22:00:00 9,7 7,0 9 5 - - W 1004,7 30 0 0,0
19.10.2019 21:00:00 10,2 7,3 13 7 - - WSW 1004,3 10 0 0,0
19.10.2019 20:00:00 11,3 7,6 13 7 - - WSW 1003,6 10 0 0,0
19.10.2019 19:00:00 11,6 7,2 15 8 - - WSW 1002,9 10 0 0,0
19.10.2019 18:00:00 12,8 7,0 16 9 - - SW 1002,3 40 30 0,0
19.10.2019 17:00:00 13,9 7,0 21 11 - - WSW 1001,8 10 54 0,0
19.10.2019 16:00:00 14,4 8,7 22 12 - - WSW 1001,4 10 42 0,0
19.10.2019 15:00:00 12,4 8,7 21 11 - - WSW 1001,1 10 0 0,6
19.10.2019 14:00:00 14,4 6,8 21 11 - - WSW 1000,6 10 36 0,0
19.10.2019 13:00:00 14,4 6,8 21 11 - - SW 1000,4 28 54 0,0
19.10.2019 12:00:00 13,3 7,4 24 13 - - WSW 1000,2 30 48 0,0
19.10.2019 11:00:00 13,0 8,9 18 10 - - SW 1000,0 10 60 0,0
19.10.2019 10:00:00 11,7 9,0 21 11 - - SW 999,7 10 60 0,0
19.10.2019 09:00:00 10,4 8,5 15 8 - - SW 999,4 10 12 0,0
19.10.2019 08:00:00 9,7 8,4 16 9 - - SSW 999,0 18 0 0,0
19.10.2019 07:00:00 9,9 8,5 16 9 - - SSW 998,5 10 0 0,0
19.10.2019 06:00:00 9,8 8,6 13 7 - - S 998,6 10 0 0,0
19.10.2019 05:00:00 10,1 9,1 11 6 - - S 998,3 10 0 0,0
19.10.2019 04:00:00 10,1 9,0 13 7 - - S 998,5 10 0 0,0
19.10.2019 03:00:00 10,0 8,8 13 7 - - S 998,9 21 0 0,0
19.10.2019 02:00:00 10,1 8,4 13 7 - - SSW 998,9 10 0 0,0
19.10.2019 01:00:00 10,4 8,7 15 8 - - SSW 999,0 10 - 0,0
19.10.2019 00:00:00 10,9 9,2 11 6 - - S 999,3 15 0 0,0
18.10.2019 23:00:00 11,2 8,8 15 8 - - S 999,5 10 0 0,0
18.10.2019 22:00:00 11,7 9,1 21 11 - - SSW 999,6 10 0 0,0
18.10.2019 21:00:00 11,5 9,0 16 9 48 26 S 999,8 18 0 0,2
18.10.2019 20:00:00 12,0 8,6 28 15 - - SSW 1000,1 10 0 0,0
18.10.2019 19:00:00 12,1 8,2 18 10 - - SSW 1000,1 18 0 0,0
18.10.2019 18:00:00 12,7 8,3 22 12 - - SW 1000,2 10 12 0,0
18.10.2019 17:00:00 13,5 8,1 22 12 55 30 SW 1000,3 10 30 0,2
18.10.2019 16:00:00 14,4 7,2 35 19 57 31 SW 1000,1 10 36 0,0
18.10.2019 15:00:00 14,3 10,3 21 11 - - SW 999,8 10 0 0,0
18.10.2019 14:00:00 13,9 9,6 22 12 46 25 SW 1000,0 10 6 2,0
18.10.2019 13:00:00 14,2 7,9 35 19 52 28 SW 1000,0 10 18 0,0
18.10.2019 12:00:00 14,3 8,4 31 17 - - SW 999,9 19 54 0,0
18.10.2019 11:00:00 13,4 8,2 26 14 - - WSW 1000,0 10 60 0,0
18.10.2019 10:00:00 11,5 8,6 24 13 - - SW 999,7 10 54 0,0
18.10.2019 09:00:00 9,9 8,6 16 9 - - SW 999,5 30 6 0,0
18.10.2019 08:00:00 9,6 8,2 18 10 - - WSW 998,6 10 0 0,0
18.10.2019 07:00:00 9,8 8,5 16 9 - - WSW 997,9 30 0 0,0
18.10.2019 06:00:00 10,3 9,1 21 11 - - SW 997,2 10 0 0,4
18.10.2019 05:00:00 10,2 9,4 15 8 - - SSE 997,7 3,0 0 0,4
18.10.2019 04:00:00 10,3 9,4 15 8 - - S 998,3 10 0 0,4
18.10.2019 03:00:00 10,1 9,2 13 7 - - SSE 999,4 10 0 5,8
18.10.2019 02:00:00 10,3 8,0 24 13 - - W 1001,0 2,0 0 1,2
18.10.2019 01:00:00 11,0 9,9 11 6 - - SE 1001,1 10 - 0,0
18.10.2019 00:00:00 10,7 9,8 15 8 - - SSE 1001,9 20 0 0,0
17.10.2019 23:00:00 11,0 9,5 15 8 - - S 1002,4 10 0 0,0
17.10.2019 22:00:00 11,3 9,8 18 10 - - SSE 1003,2 26 0 0,0
17.10.2019 21:00:00 11,0 9,2 13 7 - - S 1003,6 10 0 0,0
17.10.2019 20:00:00 11,9 9,6 16 9 - - S 1003,8 35 0 0,0
17.10.2019 19:00:00 12,6 10,6 11 6 - - S 1004,0 27 0 0,0
17.10.2019 18:00:00 13,4 10,2 16 9 - - SSW 1004,1 10 6 0,4
17.10.2019 17:00:00 14,8 9,3 18 10 - - SSW 1004,0 10 18 0,0
17.10.2019 16:00:00 15,4 11,4 16 9 - - SW 1004,3 23 18 0,2
17.10.2019 15:00:00 14,2 10,4 22 12 - - S 1004,6 23 36 0,0
17.10.2019 14:00:00 14,2 11,4 21 11 - - S 1004,9 23 6 0,2
17.10.2019 13:00:00 12,7 11,3 11 6 - - SSE 1005,5 10 0 0,6
17.10.2019 12:00:00 12,1 10,5 18 10 - - SSE 1006,3 9 0 0,6
17.10.2019 11:00:00 13,2 9,5 16 9 - - SSE 1006,6 10 18 0,0
17.10.2019 10:00:00 12,6 9,3 15 8 - - S 1006,8 10 48 0,0
17.10.2019 09:00:00 10,8 8,8 8 4 - - S 1007,1 10 6 0,0
17.10.2019 08:00:00 9,6 8,0 11 6 - - SSE 1007,0 25 0 0,0
17.10.2019 07:00:00 9,5 8,3 9 5 - - SSE 1006,8 10 0 0,0
17.10.2019 06:00:00 8,6 7,7 4 2 - - SE 1006,8 18 0 0,0
17.10.2019 05:00:00 8,9 7,8 4 2 - - S 1007,0 10 0 0,0
17.10.2019 04:00:00 9,7 8,3 8 4 - - SSW 1007,1 10 0 0,0
17.10.2019 03:00:00 9,5 7,6 2 1 - - S 1007,0 25 0 0,0
17.10.2019 02:00:00 10,6 8,2 8 4 - - WSW 1007,0 10 0 0,0
17.10.2019 01:00:00 10,7 7,9 11 6 - - WSW 1006,7 10 - 0,0
17.10.2019 00:00:00 10,0 7,7 4 2 - - SSW 1006,3 24 0 0,0
16.10.2019 23:00:00 11,0 7,1 5 3 - - - 1006,1 10 0 0,0
16.10.2019 22:00:00 11,2 7,0 11 6 - - W 1005,8 10 0 0,0
16.10.2019 21:00:00 11,3 7,4 9 5 - - SW 1005,3 26 0 0,0
16.10.2019 20:00:00 12,3 6,7 9 5 - - W 1004,8 10 0 0,0
16.10.2019 19:00:00 12,7 6,0 9 5 - - WNW 1004,3 10 0 0,0
16.10.2019 18:00:00 13,3 6,2 15 8 - - WSW 1003,8 30 36 0,0
16.10.2019 17:00:00 14,2 6,0 18 10 - - W 1003,4 30 30 0,0
16.10.2019 16:00:00 15,4 7,9 21 11 - - W 1003,4 10 24 0,0
16.10.2019 15:00:00 15,2 7,4 24 13 - - WSW 1003,2 25 18 0,0
16.10.2019 14:00:00 15,0 7,7 22 12 - - W 1002,8 10 30 0,0
16.10.2019 13:00:00 14,8 9,4 22 12 - - W 1002,6 3,0 18 0,0
16.10.2019 12:00:00 14,9 11,2 24 13 - - SW 1002,4 10 18 0,0
16.10.2019 11:00:00 13,5 11,5 21 11 - - W 1001,7 10 0 0,0
16.10.2019 10:00:00 13,9 12,3 28 15 - - W 1001,0 7 0 0,2
16.10.2019 09:00:00 14,9 14,8 11 6 - - S 1000,0 9 0 0,4
16.10.2019 08:00:00 14,1 13,7 13 7 - - SSE 999,9 6 0 0,0
16.10.2019 07:00:00 13,9 13,2 18 10 - - SE 1000,0 50 0 0,0
16.10.2019 06:00:00 13,7 13,1 18 10 - - SE 1000,7 15 0 0,2
16.10.2019 05:00:00 13,2 12,1 16 9 - - SSE 1001,6 15 0 0,0
16.10.2019 04:00:00 12,6 11,6 15 8 - - SSE 1002,5 10 0 0,0
16.10.2019 03:00:00 12,0 10,8 15 8 - - SE 1003,5 16 0 0,0
16.10.2019 02:00:00 11,0 9,8 11 6 - - SE 1004,4 22 0 0,0
16.10.2019 01:00:00 10,1 9,0 8 4 - - SE 1005,1 10 - 0,0
16.10.2019 00:00:00 10,5 9,1 8 4 - - S 1005,8 10 0 0,0
15.10.2019 23:00:00 11,2 9,6 11 6 - - SSW 1005,9 22 0 0,0
15.10.2019 22:00:00 11,9 10,2 15 8 - - SW 1005,9 10 0 0,0
15.10.2019 21:00:00 12,6 10,6 13 7 - - S 1005,5 25 0 0,0
15.10.2019 20:00:00 13,5 10,7 13 7 - - S 1005,3 23 0 0,0
15.10.2019 19:00:00 14,6 10,6 15 8 - - SSW 1005,0 10 0 0,0
15.10.2019 18:00:00 15,7 11,0 13 7 - - SSW 1004,4 30 6 0,0
15.10.2019 17:00:00 16,0 10,7 15 8 - - SSW 1004,1 30 0 0,0
15.10.2019 16:00:00 16,9 9,9 15 8 - - SW 1003,9 35 18 0,0
15.10.2019 15:00:00 16,5 11,0 8 4 - - W 1003,9 0,6 24 0,0
15.10.2019 14:00:00 16,5 10,7 11 6 - - SW 1004,0 10 36 0,0
15.10.2019 13:00:00 14,8 11,2 5 3 - - S 1004,5 16 18 0,0
15.10.2019 12:00:00 13,4 11,0 9 5 - - WSW 1004,6 10 0 0,0
15.10.2019 11:00:00 12,6 10,2 5 3 - - - 1004,5 10 0 0,0
15.10.2019 10:00:00 11,8 10,1 4 2 - - - 1004,5 8 0 0,0
15.10.2019 09:00:00 11,1 10,0 5 3 - - W 1004,0 10 0 0,0
15.10.2019 08:00:00 10,8 9,8 8 4 - - W 1003,5 10 0 0,0
15.10.2019 07:00:00 10,8 9,6 11 6 - - SW 1003,5 18 0 0,0
15.10.2019 06:00:00 10,9 9,7 13 7 - - WSW 1003,1 22 0 0,0
15.10.2019 05:00:00 10,8 9,6 18 10 - - WSW 1002,6 10 0 0,0

tt = Température de l'air
td = dewpoint
ff = Vitesse du vent
fx = gusts
dd = Direction du vent
ppp = reduced air pressure
vv = visibility
sd = Ensoleillement
rr = Quantités de précipitations

stations d'obs. à proximité